This is the latest recevied weather packets stored in our database for station/object K4DNM. If no packets are shown the sender has not sent any weather packets the latest 10 day(s).
| Time | Temp. | Humidity | Pressure | Rain* | Wind** | Luminosity | Snow |
|---|---|---|---|---|---|---|---|
| 1787880363 | 23.33° C | 95% | 1014 hPa | 0 mm | - | 0 W/m² | - |
| 1787880064 | 23.33° C | 95% | 1014 hPa | 0 mm | - | 0 W/m² | - |
| 1787879764 | 23.33° C | 95% | 1014 hPa | 0 mm | - | 0 W/m² | - |
| 1787879464 | 23.33° C | 95% | 1014 hPa | 0 mm | - | 0 W/m² | - |
| 1787879164 | 23.33° C | 95% | 1013.8 hPa | 0 mm | - | 0 W/m² | - |
| 1787878864 | 23.33° C | 95% | 1013.7 hPa | 0 mm | - | 0 W/m² | - |
| 1787878564 | 23.33° C | 95% | 1013.6 hPa | 0 mm | - | 0 W/m² | - |
| 1787878262 | 23.33° C | 95% | 1013.6 hPa | 0 mm | - | 0 W/m² | - |
| 1787878018 | 23.33° C | 95% | 1013.6 hPa | 0 mm | - | 0 W/m² | - |
| 1787877658 | 23.33° C | 95% | 1013.6 hPa | 0 mm | - | 0 W/m² | - |
| 1787877350 | 23.33° C | 95% | 1013.6 hPa | 0 mm | - | 0 W/m² | - |
| 1787877047 | 23.33° C | 95% | 1013.4 hPa | 0 mm | - | 0 W/m² | - |
| 1787876746 | 23.33° C | 95% | 1013.5 hPa | 0.25 mm | - | 0 W/m² | - |
| 1787876446 | 23.33° C | 95% | 1013.3 hPa | 0.51 mm | - | 0 W/m² | - |
| 1787876144 | 23.33° C | 95% | 1013.1 hPa | 0.51 mm | - | 0 W/m² | - |
| 1787875907 | 23.33° C | 94% | 1012.9 hPa | 0.76 mm | - | 0 W/m² | - |
| 1787875544 | 23.33° C | 94% | 1013 hPa | 1.02 mm | - | 0 W/m² | - |
| 1787875243 | 23.89° C | 94% | 1013.1 hPa | 1.52 mm | - | 0 W/m² | - |
| 1787874941 | 23.89° C | 94% | 1012.9 hPa | 2.29 mm | - | 0 W/m² | - |
| 1787874702 | 23.89° C | 94% | 1012.7 hPa | 2.79 mm | - | 0 W/m² | - |
| 1787874337 | 23.89° C | 94% | 1012.7 hPa | 3.3 mm | - | 0 W/m² | - |
| 1787874032 | 23.89° C | 94% | 1012.8 hPa | 3.81 mm | - | 2 W/m² | - |
| 1787873731 | 23.89° C | 94% | 1013 hPa | 4.06 mm | - | 3 W/m² | - |
| 1787873424 | 23.89° C | 94% | 1013.1 hPa | 4.32 mm | - | 4 W/m² | - |
| 1787873124 | 24.44° C | 94% | 1013.1 hPa | 4.32 mm | - | 5 W/m² | - |
* Rain latest hour (hover to see other rain measurements)
** Current wind speed in m/s (hover to see current wind gust speed)